World > North America > United States > North Dakota

Selfridge, North Dakota Regional Weather

Lat: 46.04N, Lon: 100.93W
Wx Zone: NDZ045Web Search

Helpful Tip: Abbreviated, 7 Day, 14 Day Forecasts. There is a weather forecast for every taste.

Feedback


°F Click to change Selfridge hourly weather to Imperial units.Click to change Selfridge hourly weather to Metric units. °C
Selfridge Weather Map
UTC Time: 5/16/2021, 18:32
Your Time:

Selfridge, ND Regional Weather

Expires:202105161900;;214761
ASUS43 KBIS 161810
RWRND 

NORTH DAKOTA REGIONAL WEATHER ROUNDUP
NATIONAL WEATHER SERVICE BISMARCK ND
100 PM CDT SUN MAY 16 2021

NOTE: "FAIR" INDICATES FEW OR NO CLOUDS BELOW 12,000 FEET WITH NO
SIGNIFICANT WEATHER AND/OR OBSTRUCTIONS TO VISIBILITY.



NDZ018>021-031>035-040>046-161900-
SOUTHWEST NORTH DAKOTA
  
CITY           SKY/WX    TMP DP  RH WIND       PRES   REMARKS
BISMARCK       SUNNY     78  43  28 S10       30.01F                  
6HR MIN TEMP:  51; 6HR MAX TEMP:  79;                                

DICKINSON      SUNNY     73  41  31 SE8       29.99F                  
GARRISON         N/A     78  41  26 SW12G24   29.98F                  
6HR MIN TEMP:  44; 6HR MAX TEMP:  78;                                

HETTINGER ARPT SUNNY     70  46  42 E7        30.03F                  
$$
 

SKY/WX - Weather  TMP - Temperature  DP - Dew Point  RH - Relative Humidity
WIND - Wind Direction/Speed PRES - Barometric Pressure VSB - Visibility
WCI - Wind Chill Index E13G22 Wind - East Wind 13 mph/Gusts of 22 mph